Regional Weather Roundup
Issued by NWS

Home | Current Version | Previous Version | Graphics & Text | Print | Product List | Glossary On
Versions: 1 2 3 4 5 6 7 8 9 10 11 12 13 14 15 16 17 18 19 20 21 22 23 24 25 26 27 28 29 30 31 32 33 34 35 36 37 38 39 40 41 42 43 44 45 46 47 48 49 50
000
ASUS45 KBOU 220907
RWRCO

WEATHER ROUNDUP FOR COLORADO
NATIONAL WEATHER SERVICE DENVER/BOULDER CO
300 AM MDT FRI AUG 22 2014

NOTE: "FAIR" INDICATES FEW OR NO CLOUDS BELOW 12000 FEET WITH NO
SIGNIFICANT WEATHER AND/OR OBSTRUCTIONS TO VISIBILITY.

COZ001>005-013-030-031-221000-
...NORTHWEST COLORADO...

CITY           SKY/WX    TMP DP  RH WIND       PRES   REMARKS
CRAIG          MOCLDY    53  50  89 SW6       30.21R
HAYDEN         CLOUDY    54  45  71 E5        30.21S
MEEKER         CLOUDY    54  45  71 CALM      30.21S
MOUNT WERNER   NOT AVBL
STEAMBOAT SPGS CLOUDY    51  47  85 CALM      30.23F
WALDEN         CLOUDY    46  43  87 SE5       30.31S
$$

COZ006>008-011-221000-
...WEST CENTRAL VALLEYS...

CITY           SKY/WX    TMP DP  RH WIND       PRES   REMARKS
GRAND JUNCTION CLOUDY    64  51  62 E9        30.08S
MONTROSE       LGT RAIN  61  54  77 SE15      30.21R
EAGLE          CLOUDY    59  50  72 CALM      30.23S
RIFLE          CLOUDY    62  48  60 CALM      30.14S
DELTA          RAIN      70  48  45 E5        30.15R
NUCLA          LGT RAIN  59  50  72 SE18G28   30.24R
$$

COZ017>023-064>068-221000-
...SOUTHWEST COLORADO...

CITY           SKY/WX    TMP DP  RH WIND       PRES   REMARKS
DURANGO        CLOUDY    64  42  44 W14       30.21R
CORTEZ         CLOUDY    57  55  93 NE7       30.24F
PAGOSA SPRINGS CLOUDY    55  40  58 CALM      30.26S
TELLURIDE      NOT AVBL
WOLF CREEK PAS NOT AVBL
$$

COZ009-010-012-014-032>034-037-058>063-221000-
...CENTRAL COLORADO...

CITY           SKY/WX    TMP DP  RH WIND       PRES   REMARKS
ASPEN          CLOUDY    57  41  55 S7        30.28F
BUENA VISTA    MOCLDY    57  41  54 NW6       30.28S
COPPER MTN     LGT RAIN  46  36  66 S15       30.56S
BERTHOUD PASS  CLOUDY    41  39  93 NW5       30.60S
COTTONWOOD PAS MOCLDY    55  34  44 SW5       30.41S
GUNNISON       CLOUDY    55  43  62 SE3       30.32R
KREMMLING      CLOUDY    54  46  76 CALM      30.28S
LEADVILLE      CLOUDY    45  41  86 E5        30.41F
MONARCH PASS   CLOUDY    43  34  70 SW7       30.64F
SALIDA         MOCLDY    62  41  46 W8        30.32S
SUNLIGHT       CLOUDY    50  37  62 CALM      30.49S
WILKERSON PASS NOT AVBL
$$

COZ069>075-221000-
...SAN LUIS VALLEY/SANGRE DE CRISTO MOUNTAINS...

CITY           SKY/WX    TMP DP  RH WIND       PRES   REMARKS
ALAMOSA        CLOUDY    53  41  63 S3        30.24S
LA VETA PASS   NOT AVBL
SAGUACHE       MOCLDY    61  37  41 NW12      30.27R
$$

COZ035-036-038>040-221000-
...NORTHERN COLORADO FRONT RANGE...

CITY           SKY/WX    TMP DP  RH WIND       PRES   REMARKS
DENVER INTL AP CLOUDY    62  58  86 SE7       30.14F
DMNS CITY PARK   N/A     65  55  69 S3G9      30.14R
AURORA         CLOUDY    61  57  88 NE3       30.16F
FRONT RANGE AP NOT AVBL
ERIE MUNI ARPT MOCLDY    64  58  81 CALM      30.13F
BOULDER MUN AP MOCLDY    63  55  77 CALM      30.14S
CENTENNIAL     CLOUDY    61  55  81 SE9       30.18R
BROOMFIELD     MOCLDY    64  54  68 W3        30.16F
FORT COLLINS   MOCLDY    64  57  77 CALM      30.14R
LONGMONT       CLOUDY    65  58  77 CALM      30.15S
$$

COZ041-046-047-076>085-087-088-221000-
...PIKES PEAK/PALMER DIVIDE AND SOUTHERN FOOTHILLS...

CITY           SKY/WX    TMP DP  RH WIND       PRES   REMARKS
COLO. SPRINGS  MOCLDY    65  49  56 N10       30.18F
A. F. ACADEMY  MOCLDY    60  49  65 NW13      30.21S
ELLICOTT       MOCLDY    60  54  80 N10       30.15S
FALCON         CLOUDY    58  51  76 N14       30.22F
FORT CARSON    NOT AVBL
LIMON          HVY RAIN  59  56  89 NW16      30.16R FOG
MONUMENT HILL  CLOUDY    54  50  87 CALM      30.24S
TRINIDAD       PTCLDY    59  47  64 NW6       30.08F
$$

COZ042>045-048>051-090-091-221000-
...NORTHEAST COLORADO...

CITY           SKY/WX    TMP DP  RH WIND       PRES   REMARKS
GREELEY ARPT   CLOUDY    63  55  77 N3        30.13S
AKRON          CLOUDY    64  57  78 N14       30.08F
BURLINGTON     PTCLDY    66  51  58 CALM      30.03F
WRAY             N/A     70  58  66 NW6       30.02F
STERLING       RAIN      68  61  77 N3        30.06F
HOLYOKE        NOT AVBL
FORT MORGAN    CLOUDY    63  59  86 CALM      30.11S
$$

COZ086-089-092>099-221000-
...SOUTHEAST COLORADO...

CITY           SKY/WX    TMP DP  RH WIND       PRES   REMARKS
PUEBLO         MOCLDY    71  53  52 N17       30.03F
LA JUNTA       PTCLDY    68  55  63 NW10      29.99R
LAMAR          CLEAR     69  61  75 E7        29.94F
SPRINGFIELD      N/A     61  54  77 CALM      30.01S
$$


USA.gov is the U.S. government's official web portal to all federal, state and local government web resources and services.